Waarnemingen

Advertentie
Mijn weer
Karesuando A, Zweden (2081): temperatuur & dauwpunt: 18.02.2018 13:00:00 - 24.02.2018 13:00:00 (CET)Karesuando A, Zweden (2081): windsnelheid & windstoten: 18.02.2018 13:00:00 - 24.02.2018 13:00:00 (CET)Karesuando A, Zweden (2081): windrichting: 18.02.2018 13:00:00 - 24.02.2018 13:00:00 (CET)Karesuando A, Zweden (2081): luchtdruk: 18.02.2018 13:00:00 - 24.02.2018 13:00:00 (CET)Karesuando A, Zweden (2081): zicht: 18.02.2018 13:00:00 - 24.02.2018 13:00:00 (CET)Karesuando A, Zweden (2081): neerslag: 18.02.2018 13:00:00 - 24.02.2018 13:00:00 (CET)
Datum & Tijd tt [°C] td [°C] ff [km/u] ff [kn] fx [km/u] fx [kn] dd ppp [hPa] vv [km] rr [mm]
24.02.2018 13:00:00 - - - - - - - - - -
24.02.2018 12:00:00 - - - - - - - - - -
24.02.2018 11:00:00 - - - - - - - - - -
24.02.2018 10:00:00 - - - - - - - - - -
24.02.2018 09:00:00 - - - - - - - - - -
24.02.2018 08:00:00 - - - - - - - - - -
24.02.2018 07:00:00 - - - - - - - - - -
24.02.2018 06:00:00 - - - - - - - - - -
24.02.2018 05:00:00 - - - - - - - - - -
24.02.2018 04:00:00 - - - - - - - - - -
24.02.2018 03:00:00 - - - - - - - - - -
24.02.2018 02:00:00 - - - - - - - - - -
24.02.2018 01:00:00 - - - - - - - - - -
24.02.2018 00:00:00 - - - - - - - - - -
23.02.2018 23:00:00 - - - - - - - - - -
23.02.2018 22:00:00 - - - - - - - - - -
23.02.2018 21:00:00 -28,2 -31,3 3 2 5 3 WNW 1040,8 2,3 0,1
23.02.2018 20:00:00 -26,0 -28,9 1 1 5 3 Z 1040,1 0,7 0,0
23.02.2018 19:00:00 -23,8 -26,2 3 1 6 3 NO 1039,7 1,3 0,0
23.02.2018 18:00:00 -22,7 -24,4 2 1 8 5 WZW 1039,1 1,8 0,0
23.02.2018 17:00:00 -23,7 -26,1 2 1 7 4 ZO 1039,0 18 0,0
23.02.2018 16:00:00 -18,9 -20,5 4 2 5 3 NNW 1038,2 6 0,0
23.02.2018 15:00:00 -17,6 -20,1 3 2 5 3 NNW 1037,8 37 0,0
23.02.2018 14:00:00 -16,6 -19,7 3 1 6 3 N 1037,6 37 0,0
23.02.2018 13:00:00 -14,6 -17,9 2 1 5 3 OZO 1037,2 17 0,0
23.02.2018 12:00:00 -16,3 -20,0 3 1 5 3 ZZW 1037,2 1,4 0,0
23.02.2018 11:00:00 -19,1 -21,4 2 1 5 3 ZZW 1037,3 1,5 0,0
23.02.2018 10:00:00 -22,8 -25,1 3 2 5 3 WNW 1037,3 1,1 0,0
23.02.2018 09:00:00 -24,7 -27,0 1 1 6 3 ONO 1037,0 25 0,0
23.02.2018 08:00:00 -25,4 -27,7 3 2 6 4 ZZO 1036,6 42 0,0
23.02.2018 07:00:00 -24,0 -25,8 3 2 9 5 WZW 1036,3 8 0,0
23.02.2018 06:00:00 -21,4 -23,4 2 1 4 2 WNW 1035,5 0,7 0,0
23.02.2018 05:00:00 -20,5 -21,8 5 3 8 4 W 1034,9 1,7 0,0
23.02.2018 04:00:00 -17,0 -18,0 6 3 8 5 ONO 1034,1 18 0,0
23.02.2018 03:00:00 -17,0 -18,3 4 2 9 5 NNO 1033,7 19 0,0
23.02.2018 02:00:00 -15,1 -16,2 5 3 15 8 N 1033,0 12 0,0
23.02.2018 01:00:00 -11,1 -12,7 9 5 16 9 ONO 1032,3 13 0,0
23.02.2018 00:00:00 -9,9 -12,0 10 5 28 15 NO 1031,5 31 0,0
22.02.2018 23:00:00 -8,6 -10,5 14 8 27 14 ONO 1030,9 50 0,0
22.02.2018 22:00:00 -8,0 -10,2 12 6 21 11 NNO 1030,2 27 0,0
22.02.2018 21:00:00 -8,3 -9,9 8 4 16 9 N 1029,7 10 0,0
22.02.2018 20:00:00 -8,7 -10,3 9 5 17 9 N 1029,1 3,8 0,0
22.02.2018 19:00:00 -9,4 -11,5 5 3 17 9 N 1028,8 3,8 0,0
22.02.2018 18:00:00 -10,6 -13,1 8 4 18 10 NW 1028,7 31 0,0
22.02.2018 17:00:00 -14,0 -16,3 8 4 15 8 W 1028,6 50 0,0
22.02.2018 16:00:00 -13,4 -15,9 8 4 20 11 NW 1028,1 50 0,0
22.02.2018 15:00:00 -11,8 -14,9 14 7 18 10 NW 1027,8 50 0,0
22.02.2018 14:00:00 -10,5 -14,3 10 5 18 10 WNW 1027,9 50 0,0
22.02.2018 13:00:00 -10,8 -15,6 6 3 14 7 W 1028,0 50 0,0
22.02.2018 12:00:00 -11,8 -16,9 5 3 8 4 ZW 1027,8 47 0,0
22.02.2018 11:00:00 -13,6 -17,7 6 3 9 5 ZW 1028,0 50 0,0
22.02.2018 10:00:00 -16,8 -19,8 4 2 9 5 ZZW 1028,2 50 0,0
22.02.2018 09:00:00 -20,9 -22,9 3 2 7 4 W 1028,4 50 0,0
22.02.2018 08:00:00 -22,1 -23,9 4 2 10 5 NW 1028,1 50 0,0
22.02.2018 07:00:00 -22,0 -23,8 5 3 10 5 WZW 1027,9 50 0,0
22.02.2018 06:00:00 -20,0 -21,8 5 3 8 4 WZW 1027,5 50 0,0
22.02.2018 05:00:00 -20,5 -22,5 4 2 11 6 WNW 1027,6 50 0,0
22.02.2018 04:00:00 -18,1 -20,5 5 3 11 6 ZZW 1027,4 33 0,0
22.02.2018 03:00:00 -18,3 -20,4 4 2 9 5 ZZW 1027,3 8 0,0
22.02.2018 02:00:00 -19,4 -21,7 3 2 6 4 NNW 1027,1 50 0,0
22.02.2018 01:00:00 -20,7 -22,5 6 3 8 4 WNW 1027,0 50 0,0
22.02.2018 00:00:00 -20,8 -22,6 4 2 8 4 WNW 1026,9 50 0,0
21.02.2018 23:00:00 -19,8 -21,9 5 3 8 5 W 1026,5 50 0,0
21.02.2018 22:00:00 -19,1 -20,9 4 2 7 4 W 1026,2 50 0,0
21.02.2018 21:00:00 -17,8 -20,0 6 3 9 5 W 1025,6 50 0,0
21.02.2018 20:00:00 -17,4 -19,6 3 2 9 5 NW 1025,1 50 0,0
21.02.2018 19:00:00 -16,9 -19,1 5 3 8 5 W 1024,7 50 0,0
21.02.2018 18:00:00 -15,1 -17,7 5 3 13 7 NNW 1024,2 50 0,0
21.02.2018 17:00:00 -13,9 -17,3 8 4 11 6 WZW 1023,4 50 0,0
21.02.2018 16:00:00 -13,6 -17,4 4 2 16 9 WZW 1023,6 50 0,0
21.02.2018 15:00:00 -13,6 -17,6 11 6 16 8 WZW 1023,3 50 0,0
21.02.2018 14:00:00 -14,3 -18,4 11 6 16 9 WZW 1023,4 26 0,0
21.02.2018 13:00:00 -15,0 -18,8 6 4 11 6 WZW 1023,8 50 0,0
21.02.2018 12:00:00 -19,9 -22,9 6 3 11 6 WNW 1024,3 50 0,0
21.02.2018 11:00:00 -24,2 -27,1 6 4 10 5 NW 1025,1 50 0,0
21.02.2018 10:00:00 -27,1 -29,7 4 2 10 5 WNW 1026,1 50 0,0
21.02.2018 09:00:00 - - - - - - - - - -
21.02.2018 08:00:00 - - - - - - - - - -
21.02.2018 07:00:00 - - - - - - - - - -
21.02.2018 06:00:00 - - - - - - - - - -
21.02.2018 05:00:00 - - - - - - - - - -
21.02.2018 04:00:00 - - - - - - - - - -
21.02.2018 03:00:00 - - - - - - - - - -
21.02.2018 02:00:00 - - - - - - - - - -
21.02.2018 01:00:00 - - - - - - - - - -
21.02.2018 00:00:00 - - - - - - - - - -
20.02.2018 23:00:00 - - - - - - - - - -
20.02.2018 22:00:00 - - - - - - - - - -
20.02.2018 21:00:00 - - - - - - - - - -
20.02.2018 20:00:00 - - - - - - - - - -
20.02.2018 19:00:00 - - - - - - - - - -
20.02.2018 18:00:00 -27,4 -30,4 6 3 8 4 WZW 1032,2 50 0,0
20.02.2018 17:00:00 -25,6 -28,6 5 3 6 4 WNW 1032,2 50 0,0
20.02.2018 16:00:00 -24,0 -27,3 5 3 6 4 WNW 1032,1 21 0,0
20.02.2018 15:00:00 -19,9 -22,2 3 2 7 4 WZW 1031,9 47 0,0
20.02.2018 14:00:00 -20,2 -23,4 4 2 5 3 WZW 1032,2 48 0,0
20.02.2018 13:00:00 -21,0 -24,1 3 1 14 7 W 1032,4 50 0,0
20.02.2018 12:00:00 -21,5 -24,1 5 3 7 4 WZW 1032,8 47 0,0
20.02.2018 11:00:00 -25,7 -28,5 3 1 6 3 WNW 1033,3 49 0,0
20.02.2018 10:00:00 -29,7 -32,5 4 2 7 4 NW 1033,8 50 0,0
20.02.2018 09:00:00 -32,1 -35,1 5 3 6 4 NW 1033,9 50 0,0
20.02.2018 08:00:00 -33,6 -36,8 5 3 7 4 WNW 1033,8 50 0,0
20.02.2018 07:00:00 -33,0 -36,3 4 2 6 3 WNW 1033,8 50 0,0
20.02.2018 06:00:00 -32,6 -35,6 5 3 7 4 WNW 1033,7 50 0,0
20.02.2018 05:00:00 -32,1 -35,0 4 2 6 3 NW 1033,8 50 0,0
20.02.2018 04:00:00 -31,7 -34,8 5 3 5 3 NW 1033,8 50 0,0
20.02.2018 03:00:00 -30,9 -34,1 3 2 7 4 W 1034,0 48 0,0
20.02.2018 02:00:00 -30,7 -33,8 5 3 6 3 NW 1034,3 48 0,0
20.02.2018 01:00:00 -30,7 -33,8 4 2 7 4 W 1034,4 46 0,0
20.02.2018 00:00:00 -29,5 -32,5 3 2 6 4 W 1034,3 50 0,0
19.02.2018 23:00:00 - - - - - - - - - -
19.02.2018 22:00:00 - - - - - - - - - -
19.02.2018 21:00:00 - - - - - - - - - -
19.02.2018 20:00:00 - - - - - - - - - -
19.02.2018 19:00:00 - - - - - - - - - -
19.02.2018 18:00:00 - - - - - - - - - -
19.02.2018 17:00:00 - - - - - - - - - -
19.02.2018 16:00:00 - - - - - - - - - -
19.02.2018 15:00:00 - - - - - - - - - -
19.02.2018 14:00:00 - - - - - - - - - -
19.02.2018 13:00:00 - - - - - - - - - -
19.02.2018 12:00:00 - - - - - - - - - -
19.02.2018 11:00:00 - - - - - - - - - -
19.02.2018 10:00:00 - - - - - - - - - -
19.02.2018 09:00:00 - - - - - - - - - -
19.02.2018 08:00:00 - - - - - - - - - -
19.02.2018 07:00:00 - - - - - - - - - -
19.02.2018 06:00:00 - - - - - - - - - -
19.02.2018 05:00:00 - - - - - - - - - -
19.02.2018 04:00:00 -26,1 -28,3 8 4 11 6 WZW 1031,6 50 0,0
19.02.2018 03:00:00 -26,1 -28,4 7 4 9 5 WZW 1031,6 5 0,0
19.02.2018 02:00:00 -24,8 -27,0 7 4 10 5 NW 1031,1 50 0,0
19.02.2018 01:00:00 -23,2 -25,5 5 3 9 5 WNW 1030,8 50 0,0
19.02.2018 00:00:00 -21,4 -23,6 5 3 9 5 WZW 1030,1 3,5 0,0
18.02.2018 23:00:00 -18,9 -20,9 7 4 9 5 ZW 1029,6 1,6 0,0
18.02.2018 22:00:00 -19,1 -21,1 6 3 8 4 ZZW 1029,2 1,7 0,0
18.02.2018 21:00:00 -19,0 -21,0 4 2 9 5 W 1029,0 1,1 0,0
18.02.2018 20:00:00 -19,1 -21,1 3 2 8 5 W 1028,5 0,9 0,1
18.02.2018 19:00:00 -19,7 -21,7 3 2 6 3 WNW 1028,3 1,2 0,0
18.02.2018 18:00:00 -19,8 -21,8 5 3 9 5 NW 1028,0 3,5 0,0
18.02.2018 17:00:00 -19,4 -21,6 4 2 5 3 W 1027,5 1,0 0,1
18.02.2018 16:00:00 -18,6 -20,8 3 2 8 4 WNW 1027,3 1,5 0,1
18.02.2018 15:00:00 -17,4 -19,7 5 3 9 5 W 1026,8 1,9 0,0
18.02.2018 14:00:00 -16,3 -18,5 3 2 8 5 W 1026,6 2,1 0,1
18.02.2018 13:00:00 -16,5 -18,6 5 3 9 5 WNW 1026,4 3,4 0,0

tt = temperatuur
td = dauwpunt
ff = windsnelheid
fx = windstoten
dd = windrichting
ppp = luchtdruk
vv = zicht
rr = neerslag

Weerstations in de omgeving